If you wish to contribute or participate in the discussions about articles you are invited to join SKYbrary as a registered user

 Actions

Ain Arnat Airport

From SKYbrary Wiki

DAAS
Airport
ICAO: DAAS – IATA: QSF
Summary
Name Ain Arnat Airport
Region Africa
Territory Algeria DZ.gif
Location , Setif
Serving Setif
Elevation 1,024.128 m
3,360 ft
3,360 ft1,024.128 m
Type medium airport
Coordinates 36° 10' 41.16", 5° 19' 28.164"
Runways
Designator Length Width Surface ROPS


METAR
Observation DAAS 191400Z 10010KT 9999 SCT030 25/07 Q1021
Station Setif
Date/Time 19 June 2018 14:00:00
Wind direction 100°
Wind speed 10 kts
Lowest cloud amount scattered clouds
Temperature 25°C
Dew point 7°C
Humidity 31%
QNH 1021 hPa
Weather condition n/a